| time (UTC) | temp C | wind direction | speed KPH | gust KPH | rain 1hr cm | rain 24hr cm | rain mn cm | humidity % | barometer mb |
| 20260507064103 | 10 | 15 | 0.0 | 0.0 | 0.00 | 0.66 | 0.03 | 95 | 1006.5 |
| 20260507062103 | 10 | 15 | 0.0 | 0.0 | 0.00 | 0.66 | 0.03 | 95 | 1006.5 |
| 20260507061103 | 10 | 14 | 0.0 | 0.0 | 0.00 | 0.66 | 0.03 | 95 | 1006.6 |
| 20260507055103 | 10 | 47 | 0.0 | 0.0 | 0.00 | 0.66 | 0.03 | 96 | 1006.6 |
| 20260507054103 | 10 | 47 | 0.0 | 1.6 | 0.00 | 0.66 | 0.03 | 96 | 1007.0 |
| 20260507053103 | 10 | 47 | 0.0 | 0.0 | 0.00 | 0.66 | 0.03 | 96 | 1007.1 |
| 20260507052103 | 10 | 47 | 0.0 | 6.4 | 0.00 | 0.66 | 0.03 | 96 | 1007.0 |
| 20260507051103 | 10 | 39 | 0.0 | 0.0 | 0.00 | 0.66 | 0.03 | 96 | 1007.0 |
| 20260507045103 | 11 | 89 | 0.0 | 0.0 | 0.05 | 0.66 | 0.03 | 96 | 1006.8 |
| 20260507044103 | 11 | 89 | 0.0 | 0.0 | 0.10 | 0.66 | 0.03 | 96 | 1006.8 |
| 20260507043103 | 11 | 142 | 0.0 | 8.0 | 0.10 | 0.66 | 0.03 | 96 | 1006.8 |
| 20260507042103 | 12 | 9 | 0.0 | 6.4 | 0.10 | 0.66 | 0.03 | 96 | 1006.7 |
| 20260507041103 | 12 | 334 | 0.0 | 0.0 | 0.10 | 0.66 | 0.03 | 96 | 1006.9 |
| 20260507035103 | 12 | 334 | 0.0 | 0.0 | 0.05 | 0.61 | 0.61 | 96 | 1006.7 |
| 20260507034103 | 12 | 334 | 0.0 | 1.6 | 0.00 | 0.56 | 0.56 | 96 | 1006.5 |
| 20260507033103 | 13 | 334 | 1.6 | 4.8 | 0.00 | 0.56 | 0.56 | 96 | 1006.2 |
| 20260507032103 | 13 | 305 | 0.0 | 9.7 | 0.00 | 0.56 | 0.56 | 96 | 1006.0 |
| 20260507031103 | 14 | 360 | 0.0 | 4.8 | 0.00 | 0.56 | 0.56 | 97 | 1005.8 |
| 20260507025103 | 15 | 190 | 0.0 | 0.0 | 0.00 | 0.56 | 0.56 | 96 | 1005.9 |
| 20260507024103 | 15 | 190 | 0.0 | 0.0 | 0.00 | 0.56 | 0.56 | 96 | 1005.8 |
| 20260507023103 | 15 | 190 | 0.0 | 0.0 | 0.00 | 0.56 | 0.56 | 96 | 1005.8 |
| 20260507021103 | 14 | 190 | 0.0 | 0.0 | 0.00 | 0.56 | 0.56 | 96 | 1005.4 |
| 20260507015102 | 14 | 190 | 0.0 | 0.0 | 0.00 | 0.56 | 0.56 | 96 | 1005.4 |
| 20260507014102 | 14 | 190 | 0.0 | 3.2 | 0.00 | 0.56 | 0.56 | 96 | 1005.4 |
| 20260507013102 | 14 | 191 | 1.6 | 6.4 | 0.00 | 0.56 | 0.56 | 96 | 1005.5 |
| 20260507012102 | 14 | 188 | 1.6 | 3.2 | 0.00 | 0.56 | 0.56 | 96 | 1005.5 |
| 20260507005102 | 14 | 198 | 0.0 | 6.4 | 0.00 | 0.56 | 0.56 | 96 | 1005.5 |
| 20260507003102 | 14 | 197 | 0.0 | 1.6 | 0.00 | 0.56 | 0.56 | 96 | 1005.4 |
| 20260507002102 | 15 | 196 | 0.0 | 4.8 | 0.00 | 0.56 | 0.56 | 96 | 1005.3 |
| 20260507001102 | 15 | 199 | 0.0 | 4.8 | 0.03 | 0.56 | 0.56 | 96 | 1005.3 |
| 20260506234102 | 15 | 182 | 0.0 | 6.4 | 0.18 | 0.56 | 0.56 | 96 | 1005.1 |
| 20260506233102 | 15 | 163 | 3.2 | 4.8 | 0.20 | 0.56 | 0.56 | 96 | 1005.1 |
| 20260506232102 | 15 | 164 | 0.0 | 8.0 | 0.23 | 0.56 | 0.56 | 96 | 1005.1 |
| 20260506231102 | 15 | 130 | 0.0 | 4.8 | 0.23 | 0.53 | 0.53 | 96 | 1005.2 |
| 20260506225102 | 15 | 187 | 0.0 | 8.0 | 0.15 | 0.41 | 0.41 | 96 | 1005.5 |
| 20260506224102 | 15 | 188 | 0.0 | 4.8 | 0.15 | 0.38 | 0.38 | 95 | 1005.5 |
| 20260506223102 | 15 | 186 | 0.0 | 6.4 | 0.13 | 0.36 | 0.36 | 95 | 1005.3 |
| 20260506222102 | 15 | 168 | 0.0 | 0.0 | 0.10 | 0.33 | 0.33 | 95 | 1005.5 |
| 20260506221102 | 15 | 172 | 0.0 | 6.4 | 0.08 | 0.30 | 0.30 | 95 | 1005.5 |
| 20260506215102 | 15 | 185 | 1.6 | 6.4 | 0.05 | 0.25 | 0.25 | 95 | 1005.6 |
| 20260506214102 | 15 | 162 | 4.8 | 6.4 | 0.03 | 0.23 | 0.23 | 95 | 1005.6 |
| 20260506213102 | 15 | 211 | 0.0 | 4.8 | 0.05 | 0.23 | 0.23 | 95 | 1005.6 |
| 20260506212102 | 15 | 146 | 0.0 | 4.8 | 0.08 | 0.23 | 0.23 | 95 | 1005.7 |
| 20260506205102 | 15 | 199 | 0.0 | 8.0 | 0.10 | 0.20 | 0.20 | 94 | 1006.1 |
| 20260506204101 | 16 | 246 | 0.0 | 9.7 | 0.10 | 0.20 | 0.20 | 94 | 1006.3 |
| 20260506203102 | 16 | 199 | 0.0 | 6.4 | 0.08 | 0.18 | 0.18 | 93 | 1006.3 |
| 20260506202102 | 16 | 229 | 3.2 | 9.7 | 0.05 | 0.15 | 0.15 | 92 | 1006.3 |
| 20260506201102 | 16 | 127 | 1.6 | 9.7 | 0.05 | 0.15 | 0.15 | 91 | 1006.1 |
| 20260506194102 | 16 | 198 | 0.0 | 6.4 | 0.08 | 0.10 | 0.10 | 90 | 1006.4 |
| 20260506193101 | 17 | 215 | 0.0 | 8.0 | 0.10 | 0.10 | 0.10 | 90 | 1006.3 |
| 20260506192102 | 17 | 217 | 6.4 | 8.0 | 0.10 | 0.10 | 0.10 | 89 | 1006.4 |
| 20260506184101 | 18 | 207 | 0.0 | 4.8 | 0.03 | 0.03 | 0.03 | 81 | 1006.6 |
| 20260506182101 | 20 | 193 | 0.0 | 11.3 | 0.00 | 0.00 | 0.00 | 72 | 1006.7 |
| 20260506175101 | 21 | 190 | 8.0 | 11.3 | 0.00 | 0.00 | 0.00 | 63 | 1006.8 |
| 20260506174101 | 21 | 231 | 6.4 | 11.3 | 0.00 | 0.00 | 0.00 | 61 | 1006.6 |
| 20260506173101 | 22 | 193 | 4.8 | 12.9 | 0.00 | 0.00 | 0.00 | 61 | 1006.6 |
| 20260506172101 | 22 | 131 | 6.4 | 16.1 | 0.00 | 0.00 | 0.00 | 60 | 1006.3 |
| 20260506171101 | 22 | 129 | 3.2 | 9.7 | 0.00 | 0.00 | 0.00 | 60 | 1006.5 |
| 20260506165101 | 22 | 240 | 0.0 | 11.3 | 0.00 | 0.00 | 0.00 | 63 | 1007.0 |
| 20260506164101 | 21 | 178 | 1.6 | 11.3 | 0.00 | 0.00 | 0.00 | 63 | 1007.0 |
| 20260506161101 | 21 | 212 | 0.0 | 6.4 | 0.00 | 0.00 | 0.00 | 66 | 1007.6 |
| 20260506160101 | 21 | 260 | 0.0 | 9.7 | 0.00 | 0.00 | 0.00 | 67 | 1007.9 |
| 20260506155101 | 21 | 187 | 0.0 | 8.0 | 0.00 | 0.00 | 0.00 | 67 | 1008.1 |
| 20260506154100 | 20 | 199 | 8.0 | 11.3 | 0.00 | 0.00 | 0.00 | 68 | 1008.3 |
| 20260506153100 | 20 | 224 | 8.0 | 9.7 | 0.00 | 0.00 | 0.00 | 67 | 1008.4 |
| 20260506152101 | 20 | 170 | 0.0 | 16.1 | 0.00 | 0.00 | 0.00 | 68 | 1008.5 |
| 20260506151100 | 20 | 199 | 1.6 | 9.7 | 0.00 | 0.00 | 0.00 | 68 | 1008.7 |
| 20260506145100 | 20 | 185 | 4.8 | 9.7 | 0.00 | 0.00 | 0.00 | 69 | 1008.8 |
| 20260506144100 | 20 | 194 | 4.8 | 9.7 | 0.00 | 0.00 | 0.00 | 68 | 1008.7 |
| 20260506142101 | 20 | 202 | 4.8 | 9.7 | 0.00 | 0.00 | 0.00 | 69 | 1008.5 |
| 20260506141101 | 20 | 202 | 4.8 | 11.3 | 0.00 | 0.00 | 0.00 | 71 | 1008.4 |
| 20260506135100 | 20 | 171 | 0.0 | 11.3 | 0.00 | 0.00 | 0.00 | 73 | 1008.5 |
| 20260506134100 | 19 | 184 | 1.6 | 17.7 | 0.00 | 0.00 | 0.00 | 75 | 1008.6 |
| 20260506132100 | 18 | 169 | 1.6 | 8.0 | 0.00 | 0.00 | 0.00 | 77 | 1009.0 |
| 20260506131100 | 17 | 223 | 1.6 | 8.0 | 0.00 | 0.00 | 0.00 | 78 | 1009.2 |
| 20260506130100 | 17 | 183 | 6.4 | 14.5 | 0.00 | 0.00 | 0.00 | 78 | 1009.0 |
| 20260506125100 | 17 | 259 | 1.6 | 9.7 | 0.00 | 0.00 | 0.00 | 79 | 1009.2 |
| 20260506123100 | 17 | 239 | 0.0 | 8.0 | 0.00 | 0.00 | 0.00 | 80 | 1008.9 |
| 20260506122100 | 17 | 221 | 0.0 | 8.0 | 0.00 | 0.00 | 0.00 | 80 | 1008.9 |
| 20260506121100 | 17 | 9 | 3.2 | 9.7 | 0.00 | 0.00 | 0.00 | 80 | 1009.3 |
| 20260506115100 | 16 | 115 | 0.0 | 8.0 | 0.00 | 0.00 | 0.00 | 82 | 1009.3 |
| 20260506113100 | 16 | 263 | 0.0 | 11.3 | 0.00 | 0.00 | 0.00 | 83 | 1009.4 |
| 20260506112100 | 16 | 214 | 1.6 | 8.0 | 0.00 | 0.00 | 0.00 | 83 | 1009.6 |
| 20260506111100 | 16 | 186 | 0.0 | 6.4 | 0.00 | 0.00 | 0.00 | 83 | 1009.6 |
| 20260506110100 | 15 | 193 | 0.0 | 9.7 | 0.00 | 0.00 | 0.00 | 84 | 1009.4 |
| 20260506105100 | 15 | 186 | 0.0 | 3.2 | 0.00 | 0.00 | 0.00 | 85 | 1009.6 |
| 20260506103100 | 15 | 205 | 3.2 | 4.8 | 0.00 | 0.00 | 0.00 | 84 | 1009.4 |
| 20260506102100 | 15 | 150 | 0.0 | 1.6 | 0.00 | 0.00 | 0.00 | 84 | 1009.3 |
| 20260506101100 | 15 | 200 | 0.0 | 0.0 | 0.00 | 0.00 | 0.00 | 84 | 1009.4 |
| 20260506100100 | 15 | 199 | 0.0 | 4.8 | 0.00 | 0.00 | 0.00 | 84 | 1009.4 |
| 20260506095059 | 15 | 212 | 0.0 | 0.0 | 0.00 | 0.00 | 0.00 | 83 | 1009.4 |
| 20260506094100 | 15 | 221 | 0.0 | 6.4 | 0.00 | 0.00 | 0.00 | 83 | 1009.3 |
| 20260506093059 | 15 | 163 | 0.0 | 4.8 | 0.00 | 0.00 | 0.00 | 83 | 1009.1 |
| 20260506092100 | 15 | 216 | 0.0 | 4.8 | 0.00 | 0.00 | 0.00 | 82 | 1009.3 |
| 20260506091100 | 15 | 215 | 0.0 | 6.4 | 0.00 | 0.00 | 0.00 | 82 | 1009.2 |
| 20260506090100 | 15 | 218 | 0.0 | 6.4 | 0.00 | 0.00 | 0.00 | 82 | 1009.2 |
| 20260506085059 | 15 | 257 | 0.0 | 6.4 | 0.00 | 0.00 | 0.00 | 81 | 1009.2 |
| 20260506084100 | 15 | 246 | 0.0 | 6.4 | 0.00 | 0.00 | 0.00 | 81 | 1009.3 |
| 20260506083100 | 15 | 258 | 1.6 | 9.7 | 0.00 | 0.00 | 0.00 | 80 | 1009.3 |
| 20260506072059 | 16 | 183 | 0.0 | 0.0 | 0.00 | 0.00 | 0.00 | 76 | 1009.1 |
| 20260506071059 | 16 | 175 | 0.0 | 6.4 | 0.00 | 0.00 | 0.00 | 74 | 1009.0 |